Time,TemperatureF,DewpointF,PressureIn,WindDirection,WindDirectionDegrees,WindSpeedMPH,WindSpeedGustMPH,Humidity,HourlyPrecipIn,Conditions,Clouds,dailyrainin,SoftwareType,DateUTC
2013-01-21 00:04:00,59.4,58.5,30.15,ESE,113,2.3,5.8,97,0.00,CLR,,0.00,WeatherDisplay:10.37,2013-01-21 06:04:00,
2013-01-21 00:09:00,59.5,58.6,30.15,SE,143,3.2,5.8,97,0.00,CLR,,0.00,WeatherDisplay:10.37,2013-01-21 06:09:00,
2013-01-21 00:14:00,59.4,58.5,30.15,SE,128,3.7,5.8,97,0.00,CLR,,0.00,WeatherDisplay:10.37,2013-01-21 06:14:00,
2013-01-21 00:19:00,59.4,58.5,30.15,ESE,116,3.1,4.9,97,0.00,CLR,,0.00,WeatherDisplay:10.37,2013-01-21 06:19:00,
2013-01-21 00:24:00,59.4,58.5,30.15,ESE,119,3.8,6.7,97,0.00,CLR,,0.00,WeatherDisplay:10.37,2013-01-21 06:24:00,
2013-01-21 00:29:00,59.5,58.6,30.15,SE,136,3.2,4.9,97,0.00,CLR,,0.00,WeatherDisplay:10.37,2013-01-21 06:29:00,
2013-01-21 00:34:00,59.5,58.6,30.16,SSE,165,3.3,5.3,97,0.00,CLR,,0.00,WeatherDisplay:10.37,2013-01-21 06:34:00,
2013-01-21 00:39:00,59.6,59.0,30.16,SSE,152,3.3,6.9,98,0.00,CLR,,0.00,WeatherDisplay:10.37,2013-01-21 06:39:00,
2013-01-21 00:44:00,59.7,59.1,30.16,SE,136,3.3,5.8,98,0.00,CLR,,0.00,WeatherDisplay:10.37,2013-01-21 06:44:00,
2013-01-21 00:49:00,59.8,59.2,30.16,SE,140,3.0,5.9,98,0.00,CLR,,0.00,WeatherDisplay:10.37,2013-01-21 06:49:00,
2013-01-21 00:54:00,59.9,59.3,30.16,SE,144,3.1,4.6,98,0.00,CLR,,0.00,WeatherDisplay:10.37,2013-01-21 06:54:00,
2013-01-21 00:59:00,59.9,59.3,30.16,SE,133,2.2,3.8,98,0.00,CLR,,0.00,WeatherDisplay:10.37,2013-01-21 06:59:00,
2013-01-21 01:04:00,59.9,59.3,30.16,ESE,120,4.4,5.8,98,0.00,CLR,,0.00,WeatherDisplay:10.37,2013-01-21 07:04:00,
2013-01-21 01:09:00,59.9,59.3,30.16,SE,145,4.0,6.2,98,0.00,CLR,,0.00,WeatherDisplay:10.37,2013-01-21 07:09:00,
2013-01-21 01:14:00,60.0,59.4,30.16,SE,128,3.8,5.8,98,0.00,CLR,,0.00,WeatherDisplay:10.37,2013-01-21 07:14:00,
2013-01-21 01:19:00,59.9,59.3,30.16,SE,130,4.0,6.2,98,0.00,CLR,,0.00,WeatherDisplay:10.37,2013-01-21 07:19:00,
2013-01-21 01:24:00,59.9,59.0,30.16,ESE,123,4.0,6.0,97,0.00,CLR,,0.00,WeatherDisplay:10.37,2013-01-21 07:24:00,
2013-01-21 01:29:00,59.8,58.9,30.16,ESE,109,3.0,5.8,97,0.00,CLR,,0.00,WeatherDisplay:10.37,2013-01-21 07:29:00,
2013-01-21 01:35:00,59.8,58.9,30.16,ESE,103,2.4,5.8,97,0.00,CLR,,0.00,WeatherDisplay:10.37,2013-01-21 07:35:00,
2013-01-21 01:40:00,59.7,58.8,30.15,ESE,104,1.7,5.8,97,0.00,CLR,,0.00,WeatherDisplay:10.37,2013-01-21 07:40:00,
2013-01-21 01:45:00,59.6,58.7,30.15,East,100,2.2,3.5,97,0.00,CLR,,0.00,WeatherDisplay:10.37,2013-01-21 07:45:00,
2013-01-21 01:50:00,59.5,58.6,30.15,ESE,109,2.6,3.5,97,0.00,CLR,,0.00,WeatherDisplay:10.37,2013-01-21 07:50:00,
2013-01-21 01:55:00,59.4,58.5,30.15,ESE,106,2.3,4.6,97,0.00,CLR,,0.00,WeatherDisplay:10.37,2013-01-21 07:55:00,
2013-01-21 02:00:00,59.4,58.5,30.15,ESE,110,2.5,3.5,97,0.00,CLR,,0.00,WeatherDisplay:10.37,2013-01-21 08:00:00,
2013-01-21 02:05:00,59.3,58.4,30.14,East,83,1.7,2.3,97,0.00,CLR,,0.00,WeatherDisplay:10.37,2013-01-21 08:05:00,
2013-01-21 02:10:00,59.2,58.3,30.14,East,97,1.8,2.5,97,0.00,CLR,,0.00,WeatherDisplay:10.37,2013-01-21 08:10:00,
2013-01-21 02:15:00,59.1,58.2,30.14,East,100,1.4,2.3,97,0.00,CLR,,0.00,WeatherDisplay:10.37,2013-01-21 08:15:00,
2013-01-21 02:20:00,59.0,58.2,30.14,ESE,106,1.1,3.5,97,0.00,CLR,,0.00,WeatherDisplay:10.37,2013-01-21 08:20:00,
2013-01-21 02:25:00,58.8,58.0,30.14,ESE,109,1.3,2.3,97,0.00,CLR,,0.00,WeatherDisplay:10.37,2013-01-21 08:25:00,
2013-01-21 02:30:00,58.7,57.9,30.14,ENE,62,0.0,2.3,97,0.00,CLR,,0.00,WeatherDisplay:10.37,2013-01-21 08:30:00,
2013-01-21 02:35:00,58.6,57.8,30.14,ENE,62,0.0,0.0,97,0.00,CLR,,0.00,WeatherDisplay:10.37,2013-01-21 08:35:00,
2013-01-21 02:40:00,58.5,57.7,30.14,ENE,62,0.0,0.0,97,0.00,CLR,,0.00,WeatherDisplay:10.37,2013-01-21 08:40:00,
2013-01-21 02:45:00,58.3,57.5,30.14,ENE,62,0.0,0.0,97,0.00,CLR,,0.00,WeatherDisplay:10.37,2013-01-21 08:45:00,
2013-01-21 02:50:00,58.2,57.4,30.14,ENE,62,0.0,0.0,97,0.00,CLR,,0.00,WeatherDisplay:10.37,2013-01-21 08:50:00,
2013-01-21 02:55:00,58.2,57.4,30.14,ENE,62,0.0,0.0,97,0.00,CLR,,0.00,WeatherDisplay:10.37,2013-01-21 08:55:00,
2013-01-21 03:00:00,58.1,57.3,30.14,ENE,62,0.0,0.0,97,0.00,CLR,,0.00,WeatherDisplay:10.37,2013-01-21 09:00:00,
2013-01-21 03:05:00,58.1,57.3,30.14,ENE,62,0.0,0.0,97,0.00,CLR,,0.00,WeatherDisplay:10.37,2013-01-21 09:05:00,
2013-01-21 03:10:00,58.1,57.3,30.14,ENE,62,0.0,0.0,97,0.00,CLR,,0.00,WeatherDisplay:10.37,2013-01-21 09:10:00,
2013-01-21 03:15:00,58.1,57.5,30.14,ENE,62,0.0,0.0,98,0.00,CLR,,0.00,WeatherDisplay:10.37,2013-01-21 09:15:00,
2013-01-21 03:20:00,58.0,57.4,30.14,ENE,62,0.0,1.2,98,0.00,CLR,,0.00,WeatherDisplay:10.37,2013-01-21 09:20:00,
2013-01-21 03:25:00,58.0,57.4,30.14,ESE,106,1.4,2.3,98,0.00,CLR,,0.00,WeatherDisplay:10.37,2013-01-21 09:25:00,
2013-01-21 03:30:00,58.0,57.4,30.14,East,85,1.5,2.3,98,0.00,CLR,,0.00,WeatherDisplay:10.37,2013-01-21 09:30:00,
2013-01-21 03:35:00,57.9,57.3,30.13,NE,51,1.8,2.3,98,0.00,CLR,,0.00,WeatherDisplay:10.37,2013-01-21 09:35:00,
2013-01-21 03:40:00,57.8,57.2,30.13,NE,41,1.8,2.3,98,0.00,CLR,,0.00,WeatherDisplay:10.37,2013-01-21 09:40:00,
2013-01-21 03:45:00,57.7,57.1,30.13,NE,55,1.9,2.4,98,0.00,CLR,,0.00,WeatherDisplay:10.37,2013-01-21 09:45:00,
2013-01-21 03:50:00,57.4,56.8,30.13,NE,52,2.2,2.4,98,0.00,CLR,,0.00,WeatherDisplay:10.37,2013-01-21 09:50:00,
2013-01-21 03:55:00,57.2,56.6,30.13,ENE,61,2.4,3.5,98,0.00,CLR,,0.00,WeatherDisplay:10.37,2013-01-21 09:55:00,
2013-01-21 04:00:00,57.1,56.5,30.13,ENE,68,1.5,2.3,98,0.00,CLR,,0.00,WeatherDisplay:10.37,2013-01-21 10:00:00,
2013-01-21 04:05:00,57.1,56.5,30.13,ENE,71,2.1,2.4,98,0.00,CLR,,0.00,WeatherDisplay:10.37,2013-01-21 10:05:00,
2013-01-21 04:10:00,57.1,56.5,30.13,ENE,78,2.1,3.5,98,0.00,CLR,,0.00,WeatherDisplay:10.37,2013-01-21 10:10:00,
2013-01-21 04:15:00,57.2,56.6,30.13,ENE,71,2.4,3.5,98,0.00,CLR,,0.00,WeatherDisplay:10.37,2013-01-21 10:15:00,
2013-01-21 04:21:00,57.2,56.6,30.13,ENE,66,2.7,3.5,98,0.00,CLR,,0.00,WeatherDisplay:10.37,2013-01-21 10:21:00,
2013-01-21 04:26:00,57.3,56.7,30.13,ENE,72,1.7,2.3,98,0.00,CLR,,0.00,WeatherDisplay:10.37,2013-01-21 10:26:00,
2013-01-21 04:31:00,57.3,56.7,30.13,NE,54,2.1,2.4,98,0.00,CLR,,0.00,WeatherDisplay:10.37,2013-01-21 10:31:00,
2013-01-21 04:36:00,57.3,57.0,30.13,NNE,25,0.0,2.3,99,0.00,CLR,,0.00,WeatherDisplay:10.37,2013-01-21 10:36:00,
2013-01-21 04:41:00,57.4,57.1,30.14,NNE,25,0.0,0.0,99,0.00,CLR,,0.00,WeatherDisplay:10.37,2013-01-21 10:41:00,
2013-01-21 04:46:00,57.2,56.9,30.14,NNE,25,0.0,0.0,99,0.00,CLR,,0.00,WeatherDisplay:10.37,2013-01-21 10:46:00,
2013-01-21 04:51:00,57.2,56.9,30.14,NE,48,2.0,3.5,99,0.00,CLR,,0.00,WeatherDisplay:10.37,2013-01-21 10:51:00,
2013-01-21 04:56:00,57.2,56.9,30.14,NE,47,1.8,2.3,99,0.00,CLR,,0.00,WeatherDisplay:10.37,2013-01-21 10:56:00,
2013-01-21 05:01:00,57.1,56.8,30.13,NE,52,2.0,2.3,99,0.00,CLR,,0.00,WeatherDisplay:10.37,2013-01-21 11:01:00,
2013-01-21 05:06:00,57.1,56.8,30.13,NE,54,1.9,2.3,99,0.00,CLR,,0.00,WeatherDisplay:10.37,2013-01-21 11:06:00,
2013-01-21 05:11:00,57.1,56.8,30.13,ENE,59,1.9,2.3,99,0.00,CLR,,0.00,WeatherDisplay:10.37,2013-01-21 11:11:00,
2013-01-21 05:16:00,57.1,56.8,30.13,ENE,58,1.6,2.3,99,0.00,CLR,,0.00,WeatherDisplay:10.37,2013-01-21 11:16:00,
2013-01-21 05:21:00,57.1,56.8,30.13,ENE,66,2.8,3.5,99,0.00,CLR,,0.00,WeatherDisplay:10.37,2013-01-21 11:21:00,
2013-01-21 05:26:00,57.1,56.8,30.13,ENE,65,1.9,3.5,99,0.00,CLR,,0.00,WeatherDisplay:10.37,2013-01-21 11:26:00,
2013-01-21 05:31:00,57.0,56.7,30.13,ENE,64,2.5,3.5,99,0.00,CLR,,0.00,WeatherDisplay:10.37,2013-01-21 11:31:00,
2013-01-21 05:36:00,57.0,56.7,30.13,ENE,65,2.4,3.5,99,0.00,CLR,,0.00,WeatherDisplay:10.37,2013-01-21 11:36:00,
2013-01-21 05:41:00,56.9,56.6,30.13,East,85,2.2,2.6,99,0.00,CLR,,0.00,WeatherDisplay:10.37,2013-01-21 11:41:00,
2013-01-21 05:46:00,56.8,56.5,30.14,NE,56,1.6,2.3,99,0.00,CLR,,0.00,WeatherDisplay:10.37,2013-01-21 11:46:00,
2013-01-21 05:51:00,56.8,56.5,30.14,NE,54,2.0,2.4,99,0.00,CLR,,0.00,WeatherDisplay:10.37,2013-01-21 11:51:00,
2013-01-21 05:56:00,56.5,56.2,30.14,NE,35,1.8,2.3,99,0.00,CLR,,0.00,WeatherDisplay:10.37,2013-01-21 11:56:00,
2013-01-21 06:01:00,56.5,56.5,30.14,NNE,30,1.4,1.4,100,0.00,CLR,,0.00,WeatherDisplay:10.37,2013-01-21 12:01:00,
2013-01-21 06:06:00,56.5,56.5,30.14,NE,35,0.0,1.1,100,0.00,CLR,,0.00,WeatherDisplay:10.37,2013-01-21 12:06:00,
2013-01-21 06:11:00,56.4,56.4,30.14,NE,35,0.0,0.0,100,0.00,CLR,,0.00,WeatherDisplay:10.37,2013-01-21 12:11:00,
2013-01-21 06:16:00,56.3,56.3,30.14,NE,35,0.0,0.0,100,0.00,CLR,,0.00,WeatherDisplay:10.37,2013-01-21 12:16:00,
2013-01-21 06:21:00,56.2,56.2,30.14,NE,35,0.0,0.0,100,0.00,CLR,,0.00,WeatherDisplay:10.37,2013-01-21 12:21:00,
2013-01-21 06:26:00,56.2,56.2,30.14,NE,45,2.2,2.7,100,0.00,CLR,,0.00,WeatherDisplay:10.37,2013-01-21 12:26:00,
2013-01-21 06:31:00,56.1,56.1,30.14,NE,48,2.2,2.7,100,0.00,CLR,,0.00,WeatherDisplay:10.37,2013-01-21 12:31:00,
2013-01-21 06:36:00,56.1,56.1,30.15,NE,35,2.0,2.3,100,0.00,CLR,,0.00,WeatherDisplay:10.37,2013-01-21 12:36:00,
2013-01-21 06:41:00,56.2,56.2,30.14,NE,44,2.2,2.4,100,0.00,CLR,,0.00,WeatherDisplay:10.37,2013-01-21 12:41:00,
2013-01-21 06:46:00,56.1,56.1,30.15,NNE,30,1.8,2.3,100,0.00,CLR,,0.00,WeatherDisplay:10.37,2013-01-21 12:46:00,
2013-01-21 06:51:00,56.1,56.1,30.15,NNE,17,2.4,2.7,100,0.00,CLR,,0.00,WeatherDisplay:10.37,2013-01-21 12:51:00,
2013-01-21 06:56:00,56.0,56.0,30.15,North,11,2.7,3.5,100,0.00,CLR,,0.00,WeatherDisplay:10.37,2013-01-21 12:56:00,
2013-01-21 07:01:00,55.7,55.7,30.15,NNE,31,2.9,3.5,100,0.00,CLR,,0.00,WeatherDisplay:10.37,2013-01-21 13:01:00,
2013-01-21 07:06:00,55.5,55.5,30.15,North,360,2.8,3.5,100,0.00,CLR,,0.00,WeatherDisplay:10.37,2013-01-21 13:06:00,
2013-01-21 07:11:00,55.4,55.4,30.15,NNE,21,2.9,3.5,100,0.00,CLR,,0.00,WeatherDisplay:10.37,2013-01-21 13:11:00,
2013-01-21 07:16:00,55.3,55.3,30.16,NNE,31,3.0,3.7,100,0.00,CLR,,0.00,WeatherDisplay:10.37,2013-01-21 13:16:00,
2013-01-21 07:21:00,55.3,55.3,30.16,NE,49,3.3,4.6,100,0.00,,,0.00,WeatherDisplay:10.37,2013-01-21 13:21:00,
2013-01-21 07:26:00,55.2,55.2,30.16,NNE,31,3.6,4.6,100,0.00,,,0.00,WeatherDisplay:10.37,2013-01-21 13:26:00,
2013-01-21 07:31:00,55.2,55.2,30.16,NNE,25,2.5,4.6,100,0.00,,,0.00,WeatherDisplay:10.37,2013-01-21 13:31:00,
2013-01-21 07:36:00,55.3,55.3,30.17,NNE,25,1.8,3.5,100,0.00,,,0.00,WeatherDisplay:10.37,2013-01-21 13:36:00,
2013-01-21 07:41:00,55.3,55.3,30.17,NNE,27,2.2,3.5,100,0.00,,,0.00,WeatherDisplay:10.37,2013-01-21 13:41:00,
2013-01-21 07:46:00,55.4,55.4,30.17,NE,35,3.6,4.6,100,0.00,CLR,,0.00,WeatherDisplay:10.37,2013-01-21 13:46:00,
2013-01-21 07:51:00,55.4,55.4,30.17,NE,42,4.0,4.9,100,0.00,CLR,,0.00,WeatherDisplay:10.37,2013-01-21 13:51:00,
2013-01-21 07:56:00,55.5,55.5,30.18,NE,41,2.3,4.0,100,0.00,CLR,,0.00,WeatherDisplay:10.37,2013-01-21 13:56:00,
2013-01-21 08:01:00,55.7,55.7,30.18,NNE,20,2.0,3.5,100,0.00,CLR,,0.00,WeatherDisplay:10.37,2013-01-21 14:01:00,
2013-01-21 08:06:00,56.0,56.0,30.18,NE,41,1.6,3.5,100,0.00,CLR,,0.00,WeatherDisplay:10.37,2013-01-21 14:06:00,
2013-01-21 08:11:00,56.1,56.1,30.18,NNE,25,1.6,3.8,100,0.00,CLR,,0.00,WeatherDisplay:10.37,2013-01-21 14:11:00,
2013-01-21 08:16:00,56.4,56.4,30.19,NNE,27,2.3,4.6,100,0.00,CLR,,0.00,WeatherDisplay:10.37,2013-01-21 14:16:00,
2013-01-21 08:21:00,56.7,56.7,30.19,NNE,27,2.1,4.6,100,0.00,CLR,,0.00,WeatherDisplay:10.37,2013-01-21 14:21:00,
2013-01-21 08:26:00,57.0,57.0,30.19,NNE,32,2.1,3.9,100,0.00,CLR,,0.00,WeatherDisplay:10.37,2013-01-21 14:26:00,
2013-01-21 08:31:00,57.3,57.3,30.20,NE,49,1.9,3.5,100,0.00,CLR,,0.00,WeatherDisplay:10.37,2013-01-21 14:31:00,
2013-01-21 08:36:00,57.7,57.7,30.20,NNE,30,3.0,6.2,100,0.00,CLR,,0.00,WeatherDisplay:10.37,2013-01-21 14:36:00,
2013-01-21 08:41:00,58.1,58.1,30.20,NE,38,2.1,4.6,100,0.00,CLR,,0.00,WeatherDisplay:10.37,2013-01-21 14:41:00,
2013-01-21 08:46:00,58.5,58.5,30.20,NNW,336,0.3,4.6,100,0.00,CLR,,0.00,WeatherDisplay:10.37,2013-01-21 14:46:00,
2013-01-21 08:51:00,58.7,58.7,30.21,NNE,23,2.0,3.9,100,0.00,CLR,,0.00,WeatherDisplay:10.37,2013-01-21 14:51:00,
2013-01-21 08:56:00,59.0,59.0,30.21,East,83,1.1,3.5,100,0.00,CLR,,0.00,WeatherDisplay:10.37,2013-01-21 14:56:00,
2013-01-21 09:01:00,59.4,59.4,30.21,NE,40,2.3,3.5,100,0.00,CLR,,0.00,WeatherDisplay:10.37,2013-01-21 15:01:00,
2013-01-21 09:06:00,59.5,59.5,30.22,NE,44,2.9,4.6,100,0.00,CLR,,0.00,WeatherDisplay:10.37,2013-01-21 15:06:00,
2013-01-21 09:11:00,59.9,59.9,30.22,ENE,65,3.3,4.6,100,0.00,CLR,,0.00,WeatherDisplay:10.37,2013-01-21 15:11:00,
2013-01-21 09:16:00,60.0,60.0,30.22,NNE,23,3.5,4.6,100,0.00,CLR,,0.00,WeatherDisplay:10.37,2013-01-21 15:16:00,
2013-01-21 09:21:00,60.2,60.2,30.22,ENE,66,4.5,5.8,100,0.00,CLR,,0.00,WeatherDisplay:10.37,2013-01-21 15:21:00,
2013-01-21 09:26:00,60.3,60.3,30.22,NE,48,4.3,5.9,100,0.00,CLR,,0.00,WeatherDisplay:10.37,2013-01-21 15:26:00,
2013-01-21 09:31:00,60.5,60.5,30.23,NNE,31,4.0,5.8,100,0.00,CLR,,0.00,WeatherDisplay:10.37,2013-01-21 15:31:00,
2013-01-21 09:36:00,60.8,60.8,30.23,ENE,76,2.1,5.8,100,0.00,CLR,,0.00,WeatherDisplay:10.37,2013-01-21 15:36:00,
2013-01-21 09:41:00,61.1,61.1,30.23,ENE,76,2.9,3.8,100,0.00,CLR,,0.00,WeatherDisplay:10.37,2013-01-21 15:41:00,
2013-01-21 09:46:00,61.3,61.3,30.24,ENE,65,2.6,3.8,100,0.00,CLR,,0.00,WeatherDisplay:10.37,2013-01-21 15:46:00,
2013-01-21 09:51:00,61.5,61.5,30.23,NE,52,4.4,6.6,100,0.00,CLR,,0.00,WeatherDisplay:10.37,2013-01-21 15:51:00,
2013-01-21 09:56:00,61.7,61.7,30.24,NE,51,4.3,8.1,100,0.00,CLR,,0.00,WeatherDisplay:10.37,2013-01-21 15:56:00,
2013-01-21 10:01:00,62.1,62.1,30.24,ENE,73,5.0,6.9,100,0.00,CLR,,0.00,WeatherDisplay:10.37,2013-01-21 16:01:00,
2013-01-21 10:06:00,62.9,62.9,30.25,East,86,3.7,4.6,100,0.00,CLR,,0.00,WeatherDisplay:10.37,2013-01-21 16:06:00,
2013-01-21 10:11:00,63.4,63.4,30.25,East,80,4.6,5.8,100,0.00,CLR,,0.00,WeatherDisplay:10.37,2013-01-21 16:11:00,
2013-01-21 10:16:00,64.0,63.7,30.25,ENE,62,3.9,5.8,99,0.00,CLR,,0.00,WeatherDisplay:10.37,2013-01-21 16:16:00,
2013-01-21 10:21:00,64.6,64.0,30.25,East,79,4.3,5.8,98,0.00,CLR,,0.00,WeatherDisplay:10.37,2013-01-21 16:21:00,
2013-01-21 10:26:00,65.0,64.1,30.25,ENE,65,4.3,5.8,97,0.00,CLR,,0.00,WeatherDisplay:10.37,2013-01-21 16:26:00,
2013-01-21 10:31:00,65.3,64.1,30.25,ESE,103,4.7,5.8,96,0.00,CLR,,0.00,WeatherDisplay:10.37,2013-01-21 16:31:00,
2013-01-21 10:36:00,65.7,64.5,30.25,ENE,66,3.8,5.8,96,0.00,CLR,,0.00,WeatherDisplay:10.37,2013-01-21 16:36:00,
2013-01-21 10:41:00,65.9,64.1,30.25,NE,49,4.5,6.0,94,0.00,CLR,,0.00,WeatherDisplay:10.37,2013-01-21 16:41:00,
2013-01-21 10:46:00,66.1,63.7,30.25,ENE,78,3.2,4.6,92,0.00,CLR,,0.00,WeatherDisplay:10.37,2013-01-21 16:46:00,
2013-01-21 10:51:00,66.3,63.6,30.25,ENE,71,3.1,5.0,91,0.00,CLR,,0.00,WeatherDisplay:10.37,2013-01-21 16:51:00,
2013-01-21 10:56:00,66.7,63.7,30.25,East,86,3.2,4.3,90,0.00,CLR,,0.00,WeatherDisplay:10.37,2013-01-21 16:56:00,
2013-01-21 11:01:00,66.8,63.1,30.25,ENE,68,3.3,4.2,88,0.00,CLR,,0.00,WeatherDisplay:10.37,2013-01-21 17:01:00,
2013-01-21 11:06:00,66.9,62.9,30.25,ESE,103,2.5,4.6,87,0.00,CLR,,0.00,WeatherDisplay:10.37,2013-01-21 17:06:00,
2013-01-21 11:11:00,66.9,62.9,30.25,East,95,2.7,3.5,87,0.00,CLR,,0.00,WeatherDisplay:10.37,2013-01-21 17:11:00,
2013-01-21 11:16:00,67.0,62.7,30.25,East,90,3.7,5.2,86,0.00,CLR,,0.00,WeatherDisplay:10.37,2013-01-21 17:16:00,
2013-01-21 11:21:00,67.0,62.7,30.25,ESE,103,2.1,5.8,86,0.00,CLR,,0.00,WeatherDisplay:10.37,2013-01-21 17:21:00,
2013-01-21 11:26:00,67.2,62.9,30.25,East,88,5.5,6.9,86,0.00,CLR,,0.00,WeatherDisplay:10.37,2013-01-21 17:26:00,
2013-01-21 11:31:00,67.2,62.5,30.25,East,82,3.8,6.9,85,0.00,CLR,,0.00,WeatherDisplay:10.37,2013-01-21 17:31:00,
2013-01-21 11:36:00,67.3,62.6,30.24,East,86,4.4,5.0,85,0.00,CLR,,0.00,WeatherDisplay:10.37,2013-01-21 17:36:00,
2013-01-21 11:41:00,67.5,62.8,30.25,East,85,3.9,5.8,85,0.00,CLR,,0.00,WeatherDisplay:10.37,2013-01-21 17:41:00,
2013-01-21 11:46:00,67.8,62.8,30.24,ENE,71,4.3,6.3,84,0.00,CLR,,0.00,WeatherDisplay:10.37,2013-01-21 17:46:00,
2013-01-21 11:51:00,67.9,62.9,30.24,ENE,68,5.6,7.6,84,0.00,CLR,,0.00,WeatherDisplay:10.37,2013-01-21 17:51:00,
2013-01-21 11:56:00,67.9,62.5,30.24,ENE,59,5.2,7.1,83,0.00,CLR,,0.00,WeatherDisplay:10.37,2013-01-21 17:56:00,
2013-01-21 12:01:00,68.0,62.3,30.24,East,80,4.3,8.1,82,0.00,CLR,,0.00,WeatherDisplay:10.37,2013-01-21 18:01:00,
2013-01-21 12:06:00,68.2,62.1,30.23,ENE,73,6.5,8.1,81,0.00,CLR,,0.00,WeatherDisplay:10.37,2013-01-21 18:06:00,
2013-01-21 12:11:00,68.3,61.9,30.23,ENE,76,5.0,8.1,80,0.00,CLR,,0.00,WeatherDisplay:10.37,2013-01-21 18:11:00,
2013-01-21 12:16:00,68.5,62.1,30.23,ENE,73,4.4,8.2,80,0.00,CLR,,0.00,WeatherDisplay:10.37,2013-01-21 18:16:00,
2013-01-21 12:21:00,68.8,62.0,30.22,ENE,68,5.8,8.6,79,0.00,CLR,,0.00,WeatherDisplay:10.37,2013-01-21 18:21:00,
2013-01-21 12:26:00,69.3,62.1,30.22,ENE,65,6.6,9.2,78,0.00,CLR,,0.00,WeatherDisplay:10.37,2013-01-21 18:26:00,
2013-01-21 12:31:00,69.7,62.2,30.22,ENE,69,6.2,9.3,77,0.00,CLR,,0.00,WeatherDisplay:10.37,2013-01-21 18:31:00,
2013-01-21 12:36:00,70.2,61.5,30.21,ENE,66,8.1,9.2,74,0.00,CLR,,0.00,WeatherDisplay:10.37,2013-01-21 18:36:00,
2013-01-21 12:41:00,70.0,61.3,30.21,East,80,5.9,8.1,74,0.00,CLR,,0.00,WeatherDisplay:10.37,2013-01-21 18:41:00,
2013-01-21 12:46:00,70.1,61.8,30.21,East,82,5.9,7.3,75,0.00,CLR,,0.00,WeatherDisplay:10.37,2013-01-21 18:46:00,
2013-01-21 12:51:00,70.5,61.8,30.20,ESE,116,5.2,6.0,74,0.00,CLR,,0.00,WeatherDisplay:10.37,2013-01-21 18:51:00,
2013-01-21 12:56:00,70.8,61.7,30.20,East,86,6.6,7.7,73,0.00,CLR,,0.00,WeatherDisplay:10.37,2013-01-21 18:56:00,
2013-01-21 13:01:00,70.7,61.6,30.20,East,85,5.0,8.1,73,0.00,CLR,,0.00,WeatherDisplay:10.37,2013-01-21 19:01:00,
2013-01-21 13:07:00,70.6,61.5,30.19,East,89,6.6,9.8,73,0.00,CLR,,0.00,WeatherDisplay:10.37,2013-01-21 19:07:00,
2013-01-21 13:12:00,70.5,61.4,30.19,ENE,69,6.2,9.2,73,0.00,CLR,,0.00,WeatherDisplay:10.37,2013-01-21 19:12:00,
2013-01-21 13:17:00,70.7,61.6,30.19,East,100,5.9,8.1,73,0.00,CLR,,0.00,WeatherDisplay:10.37,2013-01-21 19:17:00,
2013-01-21 13:22:00,70.6,61.5,30.19,ENE,78,5.4,6.9,73,0.00,CLR,,0.00,WeatherDisplay:10.37,2013-01-21 19:22:00,
2013-01-21 13:27:00,70.6,61.5,30.19,ENE,68,6.7,8.5,73,0.00,CLR,,0.00,WeatherDisplay:10.37,2013-01-21 19:27:00,
2013-01-21 13:32:00,70.6,61.9,30.19,ENE,64,4.9,8.1,74,0.00,CLR,,0.00,WeatherDisplay:10.37,2013-01-21 19:32:00,
2013-01-21 13:37:00,70.6,61.5,30.18,East,95,5.9,9.2,73,0.00,CLR,,0.00,WeatherDisplay:10.37,2013-01-21 19:37:00,
2013-01-21 13:42:00,70.5,61.4,30.18,ENE,68,6.7,9.2,73,0.00,CLR,,0.00,WeatherDisplay:10.37,2013-01-21 19:42:00,
2013-01-21 13:47:00,70.4,61.7,30.18,East,83,6.7,9.2,74,0.00,CLR,,0.00,WeatherDisplay:10.37,2013-01-21 19:47:00,
2013-01-21 13:52:00,70.3,61.6,30.18,East,82,6.8,9.2,74,0.00,CLR,,0.00,WeatherDisplay:10.37,2013-01-21 19:52:00,
2013-01-21 13:57:00,70.1,61.4,30.18,NE,54,6.6,8.6,74,0.00,CLR,,0.00,WeatherDisplay:10.37,2013-01-21 19:57:00,
2013-01-21 14:02:00,70.0,61.3,30.18,East,79,4.4,9.8,74,0.00,CLR,,0.00,WeatherDisplay:10.37,2013-01-21 20:02:00,
2013-01-21 14:07:00,69.9,60.8,30.18,East,89,6.3,9.2,73,0.00,CLR,,0.00,WeatherDisplay:10.37,2013-01-21 20:07:00,
2013-01-21 14:12:00,70.1,61.4,30.17,East,86,5.2,10.4,74,0.00,CLR,,0.00,WeatherDisplay:10.37,2013-01-21 20:12:00,
2013-01-21 14:17:00,70.1,61.4,30.17,ENE,78,5.8,9.2,74,0.00,CLR,,0.00,WeatherDisplay:10.37,2013-01-21 20:17:00,
2013-01-21 14:22:00,70.2,61.5,30.17,ENE,71,6.0,8.1,74,0.00,CLR,,0.00,WeatherDisplay:10.37,2013-01-21 20:22:00,
2013-01-21 14:27:00,70.2,61.1,30.17,East,85,6.0,9.2,73,0.00,CLR,,0.00,WeatherDisplay:10.37,2013-01-21 20:27:00,
2013-01-21 14:32:00,70.4,61.3,30.17,ENE,69,5.2,7.9,73,0.00,CLR,,0.00,WeatherDisplay:10.37,2013-01-21 20:32:00,
2013-01-21 14:37:00,70.5,61.4,30.17,East,82,5.6,9.2,73,0.00,CLR,,0.00,WeatherDisplay:10.37,2013-01-21 20:37:00,
2013-01-21 14:42:00,70.6,61.1,30.17,ENE,69,6.2,8.1,72,0.00,CLR,,0.00,WeatherDisplay:10.37,2013-01-21 20:42:00,
2013-01-21 14:47:00,70.8,61.3,30.17,ENE,64,6.2,8.2,72,0.00,CLR,,0.00,WeatherDisplay:10.37,2013-01-21 20:47:00,
2013-01-21 14:52:00,70.8,60.9,30.17,ENE,61,7.2,9.2,71,0.00,CLR,,0.00,WeatherDisplay:10.37,2013-01-21 20:52:00,
2013-01-21 14:57:00,70.7,60.8,30.17,ENE,78,7.3,9.4,71,0.00,CLR,,0.00,WeatherDisplay:10.37,2013-01-21 20:57:00,
2013-01-21 15:02:00,70.7,60.8,30.17,East,88,6.5,8.3,71,0.00,CLR,,0.00,WeatherDisplay:10.37,2013-01-21 21:02:00,
2013-01-21 15:08:00,70.8,60.9,30.17,East,82,5.5,7.1,71,0.00,CLR,,0.00,WeatherDisplay:10.37,2013-01-21 21:08:00,
2013-01-21 15:13:00,71.1,61.2,30.17,ENE,72,6.4,9.9,71,0.00,CLR,,0.00,WeatherDisplay:10.37,2013-01-21 21:13:00,
2013-01-21 15:18:00,71.2,60.9,30.17,East,90,5.2,6.9,70,0.00,CLR,,0.00,WeatherDisplay:10.37,2013-01-21 21:18:00,
2013-01-21 15:23:00,71.0,60.7,30.17,East,89,6.7,8.1,70,0.00,CLR,,0.00,WeatherDisplay:10.37,2013-01-21 21:23:00,
2013-01-21 15:28:00,70.9,60.6,30.17,East,86,6.7,8.1,70,0.00,CLR,,0.00,WeatherDisplay:10.37,2013-01-21 21:28:00,
2013-01-21 15:33:00,70.6,60.7,30.17,ENE,65,5.0,6.9,71,0.00,CLR,,0.00,WeatherDisplay:10.37,2013-01-21 21:33:00,
2013-01-21 15:38:00,70.4,60.5,30.17,East,89,6.4,8.4,71,0.00,CLR,,0.00,WeatherDisplay:10.37,2013-01-21 21:38:00,
2013-01-21 15:43:00,70.5,60.6,30.17,ENE,73,6.5,9.2,71,0.00,CLR,,0.00,WeatherDisplay:10.37,2013-01-21 21:43:00,
2013-01-21 15:48:00,70.4,60.5,30.17,ENE,61,6.6,8.2,71,0.00,CLR,,0.00,WeatherDisplay:10.37,2013-01-21 21:48:00,
2013-01-21 15:53:00,70.4,60.5,30.17,East,79,5.5,9.2,71,0.00,CLR,,0.00,WeatherDisplay:10.37,2013-01-21 21:53:00,
2013-01-21 15:58:00,70.5,60.6,30.17,ENE,65,6.4,9.2,71,0.00,CLR,,0.00,WeatherDisplay:10.37,2013-01-21 21:58:00,
2013-01-21 16:03:00,70.5,60.6,30.17,ENE,71,5.8,9.2,71,0.00,CLR,,0.00,WeatherDisplay:10.37,2013-01-21 22:03:00,
2013-01-21 16:08:00,70.6,60.3,30.17,East,90,7.6,10.6,70,0.00,CLR,,0.00,WeatherDisplay:10.37,2013-01-21 22:08:00,
2013-01-21 16:13:00,70.8,60.1,30.17,ENE,72,7.0,9.8,69,0.00,CLR,,0.00,WeatherDisplay:10.37,2013-01-21 22:13:00,
2013-01-21 16:18:00,71.0,59.9,30.17,ENE,76,5.0,8.1,68,0.00,CLR,,0.00,WeatherDisplay:10.37,2013-01-21 22:18:00,
2013-01-21 16:23:00,70.8,59.7,30.17,ENE,68,6.7,8.1,68,0.00,CLR,,0.00,WeatherDisplay:10.37,2013-01-21 22:23:00,
2013-01-21 16:28:00,70.5,59.4,30.17,East,85,5.9,9.2,68,0.00,CLR,,0.00,WeatherDisplay:10.37,2013-01-21 22:28:00,
2013-01-21 16:33:00,70.0,59.4,30.17,East,80,6.4,8.6,69,0.00,CLR,,0.00,WeatherDisplay:10.37,2013-01-21 22:33:00,
2013-01-21 16:38:00,69.5,59.3,30.17,East,92,6.2,8.1,70,0.00,CLR,,0.00,WeatherDisplay:10.37,2013-01-21 22:38:00,
2013-01-21 16:43:00,69.2,59.4,30.17,East,85,6.0,8.1,71,0.00,CLR,,0.00,WeatherDisplay:10.37,2013-01-21 22:43:00,
2013-01-21 16:48:00,68.9,59.5,30.17,East,85,6.2,8.6,72,0.00,CLR,,0.00,WeatherDisplay:10.37,2013-01-21 22:48:00,
2013-01-21 16:53:00,68.5,59.5,30.17,ENE,73,5.5,8.1,73,0.00,CLR,,0.00,WeatherDisplay:10.37,2013-01-21 22:53:00,
2013-01-21 16:58:00,68.2,59.6,30.17,ENE,73,5.8,7.4,74,0.00,CLR,,0.00,WeatherDisplay:10.37,2013-01-21 22:58:00,
2013-01-21 17:03:00,67.9,60.1,30.17,ENE,71,5.8,8.1,76,0.00,CLR,,0.00,WeatherDisplay:10.37,2013-01-21 23:03:00,
2013-01-21 17:08:00,67.6,60.1,30.17,East,80,4.5,8.1,77,0.00,CLR,,0.00,WeatherDisplay:10.37,2013-01-21 23:08:00,
2013-01-21 17:13:00,67.4,60.3,30.17,East,85,5.9,8.1,78,0.00,CLR,,0.00,WeatherDisplay:10.37,2013-01-21 23:13:00,
2013-01-21 17:18:00,67.2,60.1,30.17,ENE,76,5.3,8.1,78,0.00,CLR,,0.00,WeatherDisplay:10.37,2013-01-21 23:18:00,
2013-01-21 17:23:00,67.2,60.1,30.17,East,85,5.6,6.9,78,0.00,CLR,,0.00,WeatherDisplay:10.37,2013-01-21 23:23:00,
2013-01-21 17:28:00,67.2,60.1,30.17,ENE,58,5.9,8.1,78,0.00,CLR,,0.00,WeatherDisplay:10.37,2013-01-21 23:28:00,
2013-01-21 17:33:00,67.1,60.0,30.17,ENE,68,4.9,7.0,78,0.00,CLR,,0.00,WeatherDisplay:10.37,2013-01-21 23:33:00,
2013-01-21 17:38:00,67.0,59.9,30.17,East,92,5.5,7.0,78,0.00,CLR,,0.00,WeatherDisplay:10.37,2013-01-21 23:38:00,
2013-01-21 17:43:00,66.9,59.8,30.16,East,88,5.7,6.9,78,0.00,CLR,,0.00,WeatherDisplay:10.37,2013-01-21 23:43:00,
2013-01-21 17:48:00,66.6,59.5,30.16,ENE,69,5.7,6.9,78,0.00,CLR,,0.00,WeatherDisplay:10.37,2013-01-21 23:48:00,
2013-01-21 17:53:00,66.2,59.5,30.16,NE,54,5.4,7.3,79,0.00,CLR,,0.00,WeatherDisplay:10.37,2013-01-21 23:53:00,
2013-01-21 17:58:00,65.7,59.4,30.17,East,86,5.5,8.1,80,0.00,CLR,,0.00,WeatherDisplay:10.37,2013-01-21 23:58:00,
2013-01-21 18:03:00,65.1,59.1,30.17,ENE,72,5.5,8.3,81,0.00,CLR,,0.00,WeatherDisplay:10.37,2013-01-22 00:03:00,
2013-01-21 18:08:00,64.7,59.1,30.17,ENE,75,6.3,8.7,82,0.00,CLR,,0.00,WeatherDisplay:10.37,2013-01-22 00:08:00,
2013-01-21 18:13:00,64.1,59.2,30.17,NE,52,6.4,8.1,84,0.00,CLR,,0.00,WeatherDisplay:10.37,2013-01-22 00:13:00,
2013-01-21 18:18:00,63.6,59.0,30.17,ENE,64,5.6,8.1,85,0.00,CLR,,0.00,WeatherDisplay:10.37,2013-01-22 00:18:00,
2013-01-21 18:23:00,63.3,59.0,30.17,ENE,76,5.8,8.1,86,0.00,CLR,,0.00,WeatherDisplay:10.37,2013-01-22 00:23:00,
2013-01-21 18:28:00,62.9,59.0,30.18,ENE,73,5.5,6.9,87,0.00,CLR,,0.00,WeatherDisplay:10.37,2013-01-22 00:28:00,
2013-01-21 18:33:00,62.6,59.3,30.17,ENE,75,4.6,6.9,89,0.00,CLR,,0.00,WeatherDisplay:10.37,2013-01-22 00:33:00,
2013-01-21 18:38:00,62.3,59.3,30.18,ENE,58,5.6,7.1,90,0.00,CLR,,0.00,WeatherDisplay:10.37,2013-01-22 00:38:00,
2013-01-21 18:43:00,62.1,59.7,30.17,ENE,59,6.4,8.1,92,0.00,CLR,,0.00,WeatherDisplay:10.37,2013-01-22 00:43:00,
2013-01-21 18:48:00,61.7,59.7,30.18,East,83,6.9,10.4,93,0.00,CLR,,0.00,WeatherDisplay:10.37,2013-01-22 00:48:00,
2013-01-21 18:53:00,61.5,59.8,30.17,NE,55,7.0,9.2,94,0.00,CLR,,0.00,WeatherDisplay:10.37,2013-01-22 00:53:00,
2013-01-21 18:58:00,61.3,59.9,30.18,ENE,68,6.8,9.2,95,0.00,CLR,,0.00,WeatherDisplay:10.37,2013-01-22 00:58:00,
2013-01-21 19:03:00,61.1,59.7,30.18,ENE,73,7.2,9.2,95,0.00,CLR,,0.00,WeatherDisplay:10.37,2013-01-22 01:03:00,
2013-01-21 19:08:00,61.0,59.9,30.18,ENE,73,7.0,9.0,96,0.00,CLR,,0.00,WeatherDisplay:10.37,2013-01-22 01:08:00,
2013-01-21 19:13:00,60.8,59.7,30.18,ENE,62,7.4,9.3,96,0.00,CLR,,0.00,WeatherDisplay:10.37,2013-01-22 01:13:00,
2013-01-21 19:18:00,60.7,59.6,30.18,NE,51,6.1,9.2,96,0.00,CLR,,0.00,WeatherDisplay:10.37,2013-01-22 01:18:00,
2013-01-21 19:23:00,60.6,59.5,30.18,NE,54,7.0,9.2,96,0.00,CLR,,0.00,WeatherDisplay:10.37,2013-01-22 01:23:00,
2013-01-21 19:28:00,60.4,59.3,30.19,ENE,65,6.6,8.1,96,0.00,CLR,,0.00,WeatherDisplay:10.37,2013-01-22 01:28:00,
2013-01-21 19:33:00,60.4,59.3,30.19,ENE,71,6.5,9.0,96,0.00,CLR,,0.00,WeatherDisplay:10.37,2013-01-22 01:33:00,
2013-01-21 19:38:00,60.3,59.2,30.19,ENE,76,6.1,9.2,96,0.00,CLR,,0.00,WeatherDisplay:10.37,2013-01-22 01:38:00,
2013-01-21 19:43:00,60.2,59.3,30.19,NE,54,6.2,7.6,97,0.00,CLR,,0.00,WeatherDisplay:10.37,2013-01-22 01:43:00,
2013-01-21 19:48:00,60.1,59.2,30.19,East,80,5.5,6.9,97,0.00,CLR,,0.00,WeatherDisplay:10.37,2013-01-22 01:48:00,
2013-01-21 19:53:00,59.9,59.0,30.19,ENE,64,6.1,9.2,97,0.00,CLR,,0.00,WeatherDisplay:10.37,2013-01-22 01:53:00,
2013-01-21 19:58:00,59.9,59.0,30.19,East,79,6.0,6.9,97,0.00,CLR,,0.00,WeatherDisplay:10.37,2013-01-22 01:58:00,
2013-01-21 20:03:00,59.9,59.0,30.20,ENE,62,4.8,8.1,97,0.00,CLR,,0.00,WeatherDisplay:10.37,2013-01-22 02:03:00,
2013-01-21 20:08:00,59.8,58.9,30.20,ENE,62,5.3,8.1,97,0.00,CLR,,0.00,WeatherDisplay:10.37,2013-01-22 02:08:00,
2013-01-21 20:13:00,59.7,58.8,30.20,ENE,75,5.1,6.5,97,0.00,CLR,,0.00,WeatherDisplay:10.37,2013-01-22 02:13:00,
2013-01-21 20:18:00,59.7,59.1,30.20,East,85,4.6,7.4,98,0.00,CLR,,0.00,WeatherDisplay:10.37,2013-01-22 02:18:00,
2013-01-21 20:23:00,59.6,59.0,30.20,East,86,5.4,6.9,98,0.00,CLR,,0.00,WeatherDisplay:10.37,2013-01-22 02:23:00,
2013-01-21 20:28:00,59.6,59.0,30.20,East,86,4.9,5.8,98,0.00,CLR,,0.00,WeatherDisplay:10.37,2013-01-22 02:28:00,
2013-01-21 20:33:00,59.6,59.0,30.20,ENE,69,5.0,6.3,98,0.00,CLR,,0.00,WeatherDisplay:10.37,2013-01-22 02:33:00,
2013-01-21 20:38:00,59.6,59.0,30.20,ENE,72,4.8,5.8,98,0.00,CLR,,0.00,WeatherDisplay:10.37,2013-01-22 02:38:00,
2013-01-21 20:43:00,59.6,59.0,30.20,East,86,4.6,5.8,98,0.00,CLR,,0.00,WeatherDisplay:10.37,2013-01-22 02:43:00,
2013-01-21 20:48:00,59.6,59.0,30.21,East,83,4.4,5.8,98,0.00,CLR,,0.00,WeatherDisplay:10.37,2013-01-22 02:48:00,
2013-01-21 20:53:00,59.5,58.9,30.21,ENE,68,4.4,5.8,98,0.00,CLR,,0.00,WeatherDisplay:10.37,2013-01-22 02:53:00,
2013-01-21 20:58:00,59.5,58.9,30.21,East,88,4.2,5.9,98,0.00,CLR,,0.00,WeatherDisplay:10.37,2013-01-22 02:58:00,
2013-01-21 21:03:00,59.5,58.9,30.21,East,85,4.6,5.8,98,0.00,CLR,,0.00,WeatherDisplay:10.37,2013-01-22 03:03:00,
2013-01-21 21:08:00,59.4,59.1,30.21,East,85,5.4,6.9,99,0.00,CLR,,0.00,WeatherDisplay:10.37,2013-01-22 03:08:00,
2013-01-21 21:13:00,59.4,59.1,30.21,East,79,5.9,7.5,99,0.00,CLR,,0.00,WeatherDisplay:10.37,2013-01-22 03:13:00,
2013-01-21 21:18:00,59.4,59.1,30.21,ENE,76,5.1,8.1,99,0.00,CLR,,0.00,WeatherDisplay:10.37,2013-01-22 03:18:00,
2013-01-21 21:23:00,59.2,58.9,30.21,ENE,73,4.8,6.9,99,0.00,CLR,,0.00,WeatherDisplay:10.37,2013-01-22 03:23:00,
2013-01-21 21:28:00,59.2,58.9,30.21,ENE,71,4.1,5.8,99,0.00,CLR,,0.00,WeatherDisplay:10.37,2013-01-22 03:28:00,
2013-01-21 21:33:00,59.1,58.8,30.21,East,95,4.3,5.7,99,0.00,CLR,,0.00,WeatherDisplay:10.37,2013-01-22 03:33:00,
2013-01-21 21:38:00,59.1,58.8,30.21,East,86,3.9,6.1,99,0.00,CLR,,0.00,WeatherDisplay:10.37,2013-01-22 03:38:00,
2013-01-21 21:43:00,59.0,58.7,30.21,East,85,2.7,4.6,99,0.00,CLR,,0.00,WeatherDisplay:10.37,2013-01-22 03:43:00,
2013-01-21 21:48:00,58.9,58.6,30.21,ENE,78,4.3,5.8,99,0.00,CLR,,0.00,WeatherDisplay:10.37,2013-01-22 03:48:00,
2013-01-21 21:53:00,58.7,58.4,30.21,ENE,76,3.9,4.9,99,0.00,CLR,,0.00,WeatherDisplay:10.37,2013-01-22 03:53:00,
2013-01-21 21:58:00,58.6,58.3,30.21,East,89,3.9,5.0,99,0.00,CLR,,0.00,WeatherDisplay:10.37,2013-01-22 03:58:00,
2013-01-21 22:03:00,58.4,58.1,30.21,ENE,75,3.3,5.2,99,0.00,CLR,,0.00,WeatherDisplay:10.37,2013-01-22 04:03:00,
2013-01-21 22:08:00,58.4,58.1,30.21,East,93,2.7,5.8,99,0.00,CLR,,0.00,WeatherDisplay:10.37,2013-01-22 04:08:00,
2013-01-21 22:13:00,58.3,58.3,30.21,East,79,3.8,4.9,100,0.00,CLR,,0.00,WeatherDisplay:10.37,2013-01-22 04:13:00,
2013-01-21 22:18:00,58.2,58.2,30.21,East,95,4.2,5.0,100,0.00,CLR,,0.00,WeatherDisplay:10.37,2013-01-22 04:18:00,
2013-01-21 22:23:00,58.2,58.2,30.21,East,83,4.3,5.8,100,0.00,CLR,,0.00,WeatherDisplay:10.37,2013-01-22 04:23:00,
2013-01-21 22:29:00,58.1,58.1,30.21,East,85,4.5,5.8,100,0.00,CLR,,0.00,WeatherDisplay:10.37,2013-01-22 04:29:00,
2013-01-21 22:34:00,58.1,58.1,30.21,East,96,5.1,6.5,100,0.00,CLR,,0.00,WeatherDisplay:10.37,2013-01-22 04:34:00,
2013-01-21 22:39:00,58.1,58.1,30.21,East,95,4.8,6.9,100,0.00,CLR,,0.00,WeatherDisplay:10.37,2013-01-22 04:39:00,
2013-01-21 22:44:00,58.0,58.0,30.21,East,88,5.1,8.1,100,0.00,CLR,,0.00,WeatherDisplay:10.37,2013-01-22 04:44:00,
2013-01-21 22:49:00,58.0,58.0,30.21,East,85,4.5,6.9,100,0.00,CLR,,0.00,WeatherDisplay:10.37,2013-01-22 04:49:00,
2013-01-21 22:54:00,58.1,58.1,30.21,NE,56,4.2,6.9,100,0.00,CLR,,0.00,WeatherDisplay:10.37,2013-01-22 04:54:00,
2013-01-21 22:59:00,58.1,58.1,30.21,ENE,78,4.6,6.9,100,0.00,CLR,,0.00,WeatherDisplay:10.37,2013-01-22 04:59:00,
2013-01-21 23:00:00,58.1,58.1,30.21,East,89,4.6,6.9,100,0.00,CLR,,0.00,WeatherDisplay:10.37,2013-01-22 05:00:00,
2013-01-21 23:01:00,58.1,58.1,30.21,East,89,5.1,8.1,100,0.00,CLR,,0.00,WeatherDisplay:10.37,2013-01-22 05:01:00,
2013-01-21 23:03:00,58.1,58.1,30.21,ESE,110,5.3,8.1,100,0.00,CLR,,0.00,WeatherDisplay:10.37,2013-01-22 05:03:00,
2013-01-21 23:08:00,58.1,58.1,30.20,East,92,5.1,8.1,100,0.00,CLR,,0.00,WeatherDisplay:10.37,2013-01-22 05:08:00,
2013-01-21 23:14:00,58.1,58.1,30.21,East,95,6.9,6.9,100,0.00,CLR,,0.00,WeatherDisplay:10.37,2013-01-22 05:14:00,
2013-01-21 23:19:00,58.1,58.1,30.21,East,93,5.6,7.1,100,0.00,CLR,,0.00,WeatherDisplay:10.37,2013-01-22 05:19:00,
2013-01-21 23:24:00,58.2,58.2,30.21,East,92,5.1,7.3,100,0.00,CLR,,0.00,WeatherDisplay:10.37,2013-01-22 05:24:00,
2013-01-21 23:29:00,58.1,58.1,30.21,East,93,4.2,7.3,100,0.00,CLR,,0.00,WeatherDisplay:10.37,2013-01-22 05:29:00,
2013-01-21 23:34:00,58.2,58.2,30.20,SE,124,5.2,7.1,100,0.00,CLR,,0.00,WeatherDisplay:10.37,2013-01-22 05:34:00,
2013-01-21 23:40:00,58.3,58.0,30.21,ESE,120,3.5,6.9,99,0.00,CLR,,0.00,WeatherDisplay:10.37,2013-01-22 05:40:00,
2013-01-21 23:45:00,58.5,58.2,30.21,ESE,113,2.9,5.2,99,0.00,CLR,,0.00,WeatherDisplay:10.37,2013-01-22 05:45:00,
2013-01-21 23:50:00,58.5,58.2,30.20,ESE,119,3.1,8.3,99,0.00,CLR,,0.00,WeatherDisplay:10.37,2013-01-22 05:50:00,
2013-01-21 23:55:00,58.6,58.3,30.21,ESE,120,2.1,4.9,99,0.00,CLR,,0.00,WeatherDisplay:10.37,2013-01-22 05:55:00,